TimeEDT,TemperatureF,Dew PointF,Humidity,Sea Level PressureIn,VisibilityMPH,Wind Direction,Wind SpeedMPH,Gust SpeedMPH,PrecipitationIn,Events,Conditions,WindDirDegrees,DateUTC
12:53 AM,28.0,10.9,49,30.22,10.0,West,10.4,19.6,N/A,,Clear,280,2013-03-14 04:53:00
1:53 AM,27.0,10.9,51,30.23,10.0,West,11.5,-,N/A,,Clear,280,2013-03-14 05:53:00
2:53 AM,26.1,10.9,53,30.24,10.0,West,8.1,-,N/A,,Clear,260,2013-03-14 06:53:00
3:53 AM,26.1,12.9,58,30.24,10.0,West,6.9,-,N/A,,Clear,260,2013-03-14 07:53:00
4:53 AM,25.0,14.0,63,30.24,10.0,West,6.9,-,N/A,,Clear,260,2013-03-14 08:53:00
5:53 AM,24.1,15.1,69,30.25,10.0,West,8.1,-,N/A,,Clear,280,2013-03-14 09:53:00
6:53 AM,24.1,14.0,65,30.25,10.0,West,5.8,-,N/A,,Clear,260,2013-03-14 10:53:00
7:53 AM,24.1,15.1,69,30.26,10.0,West,6.9,-,N/A,,Clear,260,2013-03-14 11:53:00
8:53 AM,27.0,16.0,63,30.27,10.0,West,8.1,-,N/A,,Partly Cloudy,270,2013-03-14 12:53:00
9:53 AM,28.9,16.0,58,30.28,10.0,WNW,9.2,-,N/A,,Clear,290,2013-03-14 13:53:00
10:53 AM,32.0,15.1,50,30.28,10.0,West,12.7,-,N/A,,Scattered Clouds,270,2013-03-14 14:53:00
11:53 AM,35.1,15.1,44,30.26,10.0,West,12.7,18.4,N/A,,Scattered Clouds,270,2013-03-14 15:53:00
12:53 PM,36.0,15.1,43,30.25,10.0,West,13.8,17.3,N/A,,Partly Cloudy,270,2013-03-14 16:53:00
1:53 PM,39.0,16.0,39,30.23,10.0,West,12.7,18.4,N/A,,Scattered Clouds,280,2013-03-14 17:53:00
2:53 PM,39.9,17.1,40,30.21,10.0,WSW,11.5,-,N/A,,Mostly Cloudy,240,2013-03-14 18:53:00
3:53 PM,41.0,17.1,38,30.18,10.0,WNW,12.7,-,N/A,,Mostly Cloudy,300,2013-03-14 19:53:00
4:53 PM,42.1,17.1,37,30.18,10.0,WSW,12.7,-,N/A,,Scattered Clouds,250,2013-03-14 20:53:00
5:53 PM,42.1,17.1,37,30.17,10.0,West,12.7,17.3,N/A,,Scattered Clouds,260,2013-03-14 21:53:00
6:53 PM,39.9,15.1,36,30.15,10.0,West,9.2,-,N/A,,Scattered Clouds,260,2013-03-14 22:53:00
7:53 PM,37.9,16.0,41,30.15,10.0,West,4.6,-,N/A,,Scattered Clouds,270,2013-03-14 23:53:00
8:53 PM,36.0,17.1,46,30.14,10.0,SW,6.9,-,N/A,,Partly Cloudy,220,2013-03-15 00:53:00
9:53 PM,35.1,19.9,54,30.14,10.0,SW,8.1,-,N/A,,Partly Cloudy,220,2013-03-15 01:53:00
10:53 PM,33.1,19.9,59,30.13,10.0,SSW,9.2,-,N/A,,Partly Cloudy,210,2013-03-15 02:53:00
11:53 PM,33.1,19.9,59,30.10,10.0,SW,9.2,-,N/A,,Scattered Clouds,220,2013-03-15 03:53:00